Printer-friendly version

IAU Minor Planet Center

Minor Planet Center

(51) Nemausa

Orbital Elements

The following orbital elements are taken from MPC 31001:
    (51) Nemausa
Epoch 2007 Oct. 27.0 TT = JDT 2454400.5                 Goffin
M  37.82965              (2000.0)            P               Q
n   0.27090699     Peri.    2.94803     -0.99982833     -0.01446379
a   2.3654979      Node   176.16542     +0.01136469     -0.97234950
e   0.0664486      Incl.    9.97154     +0.01463373     -0.23308208
P   3.64           H    7.35          G   0.08           U   0
From 3595 observations at 87 oppositions, 1858-1997, mean residual 0".52.
An explanation of the orbital elements is available.

These orbital elements are also available in forms suitable for loading into a number of popular planetarium-type software programs.


Ephemeris

The following ephemeris is at intervals of five days. A daily ephemeris covering the same time interval is also available.

Personalized ephemerides for this object (and others) can be generated using the MPES.

Date    TT    R. A. (2000) Decl.     Delta      r     Elong.  Phase     V
 
2008 05 05    20 03.10   -08 04.2    1.931    2.375   103.3    24.4    11.9
2008 05 10    20 06.05   -07 35.0    1.877    2.379   107.1    23.9    11.8
2008 05 15    20 08.39   -07 07.4    1.823    2.382   111.1    23.3    11.7
2008 05 20    20 10.09   -06 41.8    1.771    2.386   115.3    22.5    11.7
2008 05 25    20 11.13   -06 18.5    1.722    2.390   119.5    21.6    11.6
2008 05 30    20 11.49   -05 58.0    1.675    2.393   124.0    20.6    11.5
2008 06 04    20 11.13   -05 40.8    1.630    2.397   128.5    19.3    11.4
2008 06 09    20 10.07   -05 27.4    1.589    2.401   133.2    18.0    11.3
2008 06 14    20 08.32   -05 18.0    1.552    2.404   137.9    16.4    11.2
2008 06 19    20 05.90   -05 13.1    1.519    2.408   142.8    14.8    11.1
2008 06 24    20 02.86   -05 12.8    1.490    2.411   147.7    13.0    11.0
2008 06 29    19 59.28   -05 17.5    1.467    2.415   152.5    11.2    10.9
2008 07 04    19 55.22   -05 27.2    1.449    2.418   157.1     9.4    10.8
2008 07 09    19 50.82   -05 41.8    1.437    2.422   161.1     7.8    10.7
2008 07 14    19 46.21   -06 01.0    1.432    2.425   164.1     6.6    10.6
2008 07 19    19 41.52   -06 24.4    1.432    2.428   165.2     6.1    10.6
2008 07 24    19 36.91   -06 51.5    1.439    2.432   164.1     6.6    10.6
2008 07 29    19 32.50   -07 21.6    1.452    2.435   161.2     7.7    10.7
2008 08 03    19 28.45   -07 54.1    1.471    2.438   157.2     9.3    10.8
2008 08 08    19 24.86   -08 28.2    1.496    2.442   152.6    11.0    10.9
2008 08 13    19 21.84   -09 03.1    1.527    2.445   147.8    12.8    11.0
2008 08 18    19 19.46   -09 38.2    1.563    2.448   142.9    14.4    11.2
2008 08 23    19 17.76   -10 13.0    1.604    2.451   138.0    16.0    11.3
2008 08 28    19 16.77   -10 46.9    1.649    2.454   133.2    17.5    11.4
2008 09 02    19 16.51   -11 19.4    1.699    2.457   128.5    18.8    11.5
2008 09 07    19 16.98   -11 50.3    1.752    2.460   123.9    19.9    11.6
2008 09 12    19 18.15   -12 19.2    1.807    2.463   119.4    20.9    11.7
2008 09 17    19 20.00   -12 45.8    1.866    2.466   115.0    21.7    11.8

Back to Bright Minor Planets

Astronomical Headlines Index

MPC


Valid HTML 4.01!